{"data":{"norad_id":60722,"intl_designator":"2024-152C","name":"STARLINK-11188 [DTC]","alt_names":[],"object_type":"PAYLOAD","status":"ACTIVE","operator":null,"country":"US","launch_date":"2024-08-28","launch_site_code":"AFETR","launch_vehicle":null,"mission":null,"orbit_class":"UNKNOWN","rcs_meters":null,"size_class":null,"mass_kg":null,"dimensions":null,"purposes":["comms"],"wikipedia_slug":null,"has_3d_model":false,"image_url":null,"decayed_at":null,"tle_current":{"epoch":"2026-05-25T03:57:44.474112Z","epoch_age_seconds":74936,"freshness":"FRESH","line1":"1 60722U 24152C   26145.16509808  .00000102  00000+0  56957-5 0  9995","line2":"2 60722  53.1584  99.4633 0000948  65.5836 294.5281 15.69707801100964","mean_motion":15.69707801,"eccentricity":9.48e-5,"inclination_deg":53.1584,"raan_deg":99.4633,"arg_perigee_deg":65.5836,"mean_anomaly_deg":294.5281,"bstar":5.6957e-6,"rev_number":10096,"period_min":91.73681873038,"perigee_km":359.09429304331,"apogee_km":360.37179320348,"semimajor_km":6737.8700431234,"source":"CELESTRAK","updated_at":"2026-05-25T13:38:19.283760Z"}}}